{"data":{"norad_id":53682,"intl_designator":"2022-105AL","name":"STARLINK-4438","alt_names":[],"object_type":"PAYLOAD","status":"ACTIVE","operator":null,"country":"US","launch_date":"2022-08-31","launch_site_code":"AFWTR","launch_vehicle":null,"mission":null,"orbit_class":"UNKNOWN","rcs_meters":null,"size_class":null,"mass_kg":null,"dimensions":null,"purposes":["comms"],"wikipedia_slug":null,"has_3d_model":false,"image_url":null,"decayed_at":null,"tle_current":{"epoch":"2026-09-20T14:01:18.637536Z","epoch_age_seconds":74429,"freshness":"FRESH","line1":"1 53682U 22105AL  26263.58424349  .00000445  00000+0  16099-4 0  9993","line2":"2 53682  97.2842 140.2866 0001816  90.5440 269.6011 15.33438325222753","mean_motion":15.33438325,"eccentricity":0.0001816,"inclination_deg":97.2842,"raan_deg":140.2866,"arg_perigee_deg":90.544,"mean_anomaly_deg":269.6011,"bstar":1.6099e-5,"rev_number":22275,"period_min":93.906613427051,"perigee_km":464.32021872762,"apogee_km":466.8058505802,"semimajor_km":6843.7000346539,"source":"CELESTRAK","updated_at":"2026-09-21T09:00:32.978597Z"}}}